User: anonymous   Login
Location: Zlin
(49.2330°N, 17.6670°E)
Time: 03:14:41
(UTC+01:00)
Language:

ISS - Orbit

View from above orbital plane
View from above orbital plane
View from above satellite
View from above satellite

Ground track
Ground track

The orbit data is extracted from the following two-line orbital elements,

1 25544U 98067A   17056.59750732  .00016717  00000-0  10270-3 0  9015
2 25544  51.6386 234.5695 0006520 231.7802 128.2764 15.54446202  4390
Epoch (UTC): 25 February 2017 14:20:24
Eccentricity: 0.0006520
inclination: 51.6386°
perigee height: 399 km
apogee height: 408 km
right ascension of ascending node: 234.5695°
argument of perigee: 231.7802°
revolutions per day: 15.54446202
mean anomaly at epoch: 128.2764°
orbit number at epoch: 439

The dashed part of the orbit path shows where the satellite is in the earth's shadow,  

DLR